| time (UTC) | temp F | wind direction | speed MPH | gust MPH | rain 1hr in | rain 24hr in | rain mn in | humidity % | barometer mb |
| 20260506171601 | 52 | 350 | 1.0 | 7.0 | 0.16 | 0.68 | 0.64 | 93 | 1005.5 |
| 20260506170059 | 52 | 5 | 1.0 | 3.0 | 0.15 | 0.65 | 0.61 | 93 | 1005.6 |
| 20260506164556 | 53 | 30 | 1.0 | 4.0 | 0.13 | 0.60 | 0.56 | 93 | 1006.1 |
| 20260506163107 | 53 | 0 | 1.0 | 3.0 | 0.13 | 0.56 | 0.52 | 93 | 1006.2 |
| 20260506161558 | 54 | 298 | 1.0 | 2.0 | 0.13 | 0.52 | 0.48 | 93 | 1006.2 |
| 20260506160107 | 54 | 46 | 1.0 | 3.0 | 0.14 | 0.50 | 0.46 | 93 | 1006.4 |
| 20260506154558 | 54 | 47 | 0.0 | 2.0 | 0.15 | 0.47 | 0.43 | 93 | 1006.6 |
| 20260506153056 | 54 | 81 | 1.0 | 3.0 | 0.15 | 0.43 | 0.39 | 93 | 1006.7 |
| 20260506151555 | 54 | 360 | 0.0 | 4.0 | 0.14 | 0.39 | 0.35 | 93 | 1006.8 |
| 20260506144556 | 55 | 360 | 1.0 | 3.0 | 0.13 | 0.32 | 0.28 | 93 | 1007.1 |
| 20260506143056 | 55 | 351 | 0.0 | 4.0 | 0.10 | 0.28 | 0.24 | 92 | 1007.5 |
| 20260506141555 | 55 | 0 | 0.0 | 2.0 | 0.09 | 0.25 | 0.21 | 92 | 1007.6 |
| 20260506140056 | 56 | 203 | 0.0 | 2.0 | 0.08 | 0.22 | 0.18 | 93 | 1007.9 |
| 20260506134618 | 56 | 121 | 0.0 | 2.0 | 0.07 | 0.19 | 0.15 | 93 | 1007.4 |
| 20260506133056 | 56 | 0 | 0.0 | 2.0 | 0.08 | 0.18 | 0.14 | 93 | 1007.1 |
| 20260506131608 | 56 | 0 | 1.0 | 2.0 | 0.09 | 0.16 | 0.12 | 92 | 1007.4 |
| 20260506130055 | 56 | 40 | 0.0 | 2.0 | 0.08 | 0.14 | 0.10 | 92 | 1007.5 |
| 20260506124605 | 56 | 165 | 0.0 | 2.0 | 0.07 | 0.12 | 0.08 | 92 | 1007.7 |
| 20260506123101 | 56 | 70 | 0.0 | 2.0 | 0.05 | 0.10 | 0.06 | 91 | 1007.7 |
| 20260506121609 | 56 | 0 | 0.0 | 2.0 | 0.02 | 0.07 | 0.03 | 91 | 1007.9 |
| 20260506114556 | 55 | 352 | 1.0 | 2.0 | 0.01 | 0.05 | 0.01 | 90 | 1007.5 |
| 20260506113058 | 55 | 0 | 0.0 | 2.0 | 0.01 | 0.05 | 0.01 | 90 | 1007.3 |
| 20260506111612 | 55 | 83 | 0.0 | 2.0 | 0.01 | 0.05 | 0.01 | 89 | 1007.4 |
| 20260506110058 | 55 | 0 | 0.0 | 2.0 | 0.00 | 0.04 | 0.00 | 89 | 1007.4 |
| 20260506104559 | 55 | 0 | 1.0 | 4.0 | 0.00 | 0.12 | 0.00 | 89 | 1007.4 |
| 20260506103101 | 55 | 32 | 0.0 | 2.0 | 0.00 | 0.12 | 0.00 | 88 | 1007.2 |
| 20260506101557 | 54 | 0 | 0.0 | 2.0 | 0.00 | 0.12 | 0.00 | 87 | 1007.2 |
| 20260506100101 | 55 | 0 | 0.0 | 2.0 | 0.00 | 0.12 | 0.00 | 87 | 1007.2 |
| 20260506094555 | 55 | 0 | 0.0 | 2.0 | 0.00 | 0.12 | 0.00 | 87 | 1007.1 |
| 20260506093059 | 55 | 0 | 0.0 | 2.0 | 0.00 | 0.12 | 0.00 | 87 | 1007.0 |
| 20260506091555 | 55 | 0 | 0.0 | 2.0 | 0.00 | 0.12 | 0.00 | 86 | 1007.1 |
| 20260506090056 | 55 | 162 | 0.0 | 2.0 | 0.00 | 0.12 | 0.00 | 86 | 1007.3 |
| 20260506084601 | 55 | 0 | 0.0 | 2.0 | 0.00 | 0.12 | 0.00 | 85 | 1007.2 |
| 20260506083114 | 55 | 0 | 0.0 | 2.0 | 0.00 | 0.12 | 0.00 | 85 | 1007.3 |
| 20260506081554 | 55 | 218 | 0.0 | 2.0 | 0.00 | 0.12 | 0.00 | 85 | 1007.6 |
| 20260506073056 | 56 | 258 | 1.0 | 3.0 | 0.00 | 0.12 | 0.00 | 84 | 1008.0 |
| 20260506071556 | 56 | 306 | 1.0 | 4.0 | 0.00 | 0.12 | 0.00 | 84 | 1008.0 |
| 20260506070126 | 57 | 218 | 1.0 | 4.0 | 0.00 | 0.12 | 0.00 | 84 | 1008.0 |
| 20260506061556 | 58 | 202 | 1.0 | 5.0 | 0.00 | 0.12 | 0.00 | 86 | 1008.3 |
| 20260506050109 | 62 | 135 | 0.0 | 2.0 | 0.00 | 0.12 | 0.00 | 76 | 1008.2 |
| 20260506044602 | 62 | 246 | 0.0 | 2.0 | 0.00 | 0.12 | 0.00 | 77 | 1008.1 |
| 20260506043058 | 62 | 294 | 1.0 | 3.0 | 0.00 | 0.12 | 0.00 | 79 | 1008.3 |
| 20260506041603 | 62 | 293 | 1.0 | 2.0 | 0.00 | 0.12 | 0.00 | 78 | 1008.3 |
| 20260506034601 | 63 | 196 | 2.0 | 5.0 | 0.00 | 0.12 | 0.12 | 78 | 1008.1 |
| 20260506033059 | 63 | 270 | 1.0 | 5.0 | 0.00 | 0.12 | 0.12 | 78 | 1008.2 |
| 20260506031555 | 63 | 190 | 1.0 | 4.0 | 0.00 | 0.12 | 0.12 | 78 | 1008.1 |
| 20260506030059 | 63 | 155 | 1.0 | 3.0 | 0.00 | 0.12 | 0.12 | 78 | 1007.7 |
| 20260506024601 | 63 | 197 | 0.0 | 3.0 | 0.00 | 0.12 | 0.12 | 77 | 1007.8 |
| 20260506023057 | 63 | 196 | 1.0 | 4.0 | 0.00 | 0.12 | 0.12 | 76 | 1007.6 |
| 20260506021558 | 64 | 188 | 1.0 | 4.0 | 0.00 | 0.12 | 0.12 | 75 | 1007.7 |
| 20260506020108 | 64 | 144 | 1.0 | 3.0 | 0.00 | 0.12 | 0.12 | 75 | 1007.6 |
| 20260506014612 | 63 | 242 | 0.0 | 4.0 | 0.00 | 0.12 | 0.12 | 76 | 1007.4 |
| 20260506013057 | 63 | 150 | 1.0 | 3.0 | 0.00 | 0.12 | 0.12 | 76 | 1007.1 |
| 20260506011619 | 63 | 170 | 0.0 | 3.0 | 0.00 | 0.12 | 0.12 | 77 | 1006.9 |
| 20260506010056 | 63 | 227 | 0.0 | 4.0 | 0.00 | 0.12 | 0.12 | 77 | 1006.7 |
| 20260506004605 | 64 | 161 | 2.0 | 6.0 | 0.00 | 0.12 | 0.12 | 76 | 1006.9 |
| 20260506003058 | 63 | 154 | 2.0 | 6.0 | 0.00 | 0.12 | 0.12 | 75 | 1006.5 |
| 20260506001602 | 64 | 169 | 1.0 | 3.0 | 0.00 | 0.12 | 0.12 | 74 | 1005.9 |
| 20260506000120 | 64 | 207 | 1.0 | 4.0 | 0.00 | 0.12 | 0.12 | 73 | 1006.1 |
| 20260505234557 | 65 | 153 | 1.0 | 6.0 | 0.00 | 0.12 | 0.12 | 71 | 1005.9 |
| 20260505233100 | 65 | 200 | 3.0 | 8.0 | 0.00 | 0.12 | 0.12 | 69 | 1006.0 |
| 20260505231614 | 66 | 125 | 3.0 | 9.0 | 0.00 | 0.12 | 0.12 | 67 | 1005.4 |
| 20260505230107 | 66 | 305 | 7.0 | 13.0 | 0.00 | 0.12 | 0.12 | 67 | 1005.1 |
| 20260505224601 | 65 | 290 | 6.0 | 11.0 | 0.00 | 0.12 | 0.12 | 68 | 1005.0 |
| 20260505223103 | 66 | 263 | 7.0 | 16.0 | 0.00 | 0.12 | 0.12 | 66 | 1005.2 |
| 20260505221601 | 66 | 280 | 8.0 | 21.0 | 0.00 | 0.12 | 0.12 | 67 | 1005.5 |
| 20260505220058 | 67 | 270 | 11.0 | 21.0 | 0.00 | 0.12 | 0.12 | 62 | 1005.6 |
| 20260505214557 | 69 | 261 | 9.0 | 18.0 | 0.00 | 0.12 | 0.12 | 55 | 1005.2 |
| 20260505213057 | 68 | 323 | 7.0 | 15.0 | 0.00 | 0.12 | 0.12 | 57 | 1004.4 |
| 20260505211554 | 69 | 294 | 8.0 | 23.0 | 0.00 | 0.12 | 0.12 | 56 | 1004.6 |
| 20260505210057 | 72 | 269 | 7.0 | 20.0 | 0.00 | 0.12 | 0.12 | 55 | 1004.8 |
| 20260505204602 | 72 | 262 | 8.0 | 13.0 | 0.00 | 0.12 | 0.12 | 60 | 1004.0 |
| 20260505203103 | 71 | 269 | 4.0 | 11.0 | 0.04 | 0.12 | 0.12 | 63 | 1003.4 |
| 20260505201557 | 69 | 304 | 3.0 | 9.0 | 0.04 | 0.12 | 0.12 | 70 | 1003.6 |
| 20260505200056 | 67 | 238 | 2.0 | 9.0 | 0.04 | 0.12 | 0.12 | 73 | 1003.8 |
| 20260505194618 | 67 | 344 | 5.0 | 38.0 | 0.04 | 0.12 | 0.12 | 71 | 1003.9 |
| 20260505193054 | 74 | 272 | 7.0 | 21.0 | 0.00 | 0.08 | 0.08 | 45 | 1003.7 |
| 20260505191606 | 78 | 288 | 15.0 | 33.0 | 0.00 | 0.08 | 0.08 | 38 | 1003.0 |
| 20260505190057 | 81 | 185 | 8.0 | 22.0 | 0.00 | 0.08 | 0.08 | 31 | 1002.3 |
| 20260505184558 | 82 | 313 | 8.0 | 23.0 | 0.00 | 0.08 | 0.08 | 30 | 1002.2 |
| 20260505183057 | 82 | 226 | 7.0 | 23.0 | 0.00 | 0.08 | 0.08 | 30 | 1002.5 |
| 20260505181556 | 83 | 228 | 9.0 | 19.0 | 0.00 | 0.08 | 0.08 | 30 | 1002.5 |
| 20260505180105 | 81 | 230 | 5.0 | 12.0 | 0.00 | 0.08 | 0.08 | 37 | 1002.6 |
| 20260505174555 | 80 | 195 | 5.0 | 15.0 | 0.00 | 0.08 | 0.08 | 38 | 1002.8 |
| 20260505173112 | 79 | 164 | 5.0 | 11.0 | 0.00 | 0.08 | 0.08 | 39 | 1003.3 |